Weather in Ivanovo

Russia / Vladimir Oblast     56°10′53″N   41°28′31″E
temp.,
°C
wind,
m/s
gust,
m/s
humid.,
%
clouds,
%
prec.,
mm/h
press.,
hPa
HPBL,
m
28 september, tue
tue2800:00+5ne4990100 0.2 1025828
03:00+5ne4991100 0.2 1026703
06:00+3ne399657 0.0 1028456
09:00+5ene488365 0.0 1030649
12:00+8ene356145 0.0 10301009
15:00+10ne454961 0.0 10311193
18:00+5nne257211 0.0 103296
21:00+4nne23794 0.0 103351
29 september, wed
wed2900:00+3n22845 0.0 103428
03:00+2n22865 0.0 103429
06:00+1nnw238842 0.0 103552
09:00+6n247167 0.0 1035309
12:00+10nne23555 0.0 1034897
15:00+11nne33525 0.0 10331115
18:00+7n227676 0.0 103413
21:00+5n228876 0.0 103418
30 september, thu
thu3000:00+6nnw1185100 0.0 103417
03:00+7nw2285100 0.0 103465
06:00+6nw238716 0.0 103497
09:00+9nw2480100 0.0 1034248
12:00+11nw237484 0.0 1034515
15:00+13nw336889 0.0 1034972
18:00+10wnw248194 0.0 103386
21:00+8wnw23925 0.0 103453
1 october, fri
fri100:00+7wnw23957 0.0 103461
03:00+7wnw249664 0.0 103478
06:00+6wnw24965 0.0 103490
09:00+10nw35795 0.0 1034286
12:00+14nw23645 0.0 1034759
15:00+15wnw236118 0.0 1033952
18:00+10w22825 0.0 103326
21:00+9w22885 0.0 103324
2 october, sat
sat200:00+7w22929 0.0 103326
03:00+7w22945 0.0 103426
06:00+6w229537 0.0 103430
09:00+10wsw237141 0.0 1034241
12:00+14wsw235547 0.0 1033796
15:00+14wsw235210 0.0 10321038
18:00+10sw22745 0.0 103210
21:00+8ssw22815 0.0 103330